Location: Bremen
(53.0793°N, 8.8017°E)
Time: 21:34:11
(UTC+01:00)

S-56A Canister/Altair - Pass Details

Date: 05 December 2021
Orbit: 634 x 2499 km, 38.9° (Epoch: 26 January)

Event Time Altitude Azimuth Distance (km) Brightness Sun altitude
Rises 23:03:29 0° 213° (SSW) 5,493 - -56.5°
Reaches altitude 10° 23:08:41 10° 199° (SSW) 4,145 - -56.8°
Maximum altitude 23:15:25 19° 160° (SSE) 2,946 - -57.3°
Drops below altitude 10° 23:20:45 10° 117° (ESE) 3,169 - -57.7°
Sets 23:24:01 0° 100° (E) 3,848 - -57.9°
